Lambertville, MI

3:48 PM EST on February 11, 2016 (GMT -0500)
Toledo Suburban Airport

Weather History for KDUH - December, 2013

Change the Weather History Date:

Friday, December 13, 2013

  Actual Average (KTOL) Record (KTOL)
Temperature  
Mean Temperature 26 °F 30 °F  
Max Temperature 32 °F 37 °F 63 °F (2015)
Min Temperature 19 °F 24 °F -4 °F (1958)
Degree Days  
Heating Degree Days 40 35  
Month to date heating degree days 424  
Since 1 July heating degree days 1657  
Cooling Degree Days 0 0  
Month to date cooling degree days 0  
Year to date cooling degree days 793  
Moisture  
Dew Point 15 °F    
Average Humidity 67    
Maximum Humidity 80    
Minimum Humidity 58    
Precipitation  
Precipitation 0.00 in 0.08 in 0.54 in (1973)
Month to date precipitation 1.16  
Year to date precipitation 32.72  
Snow  
Snow 0.00 in 0.20 in - ()
Month to date snowfall 2.5  
Since 1 July snowfall 4.6  
Snow Depth -    
Sea Level Pressure  
Sea Level Pressure 30.20 in    
Wind  
Wind Speed 6 mph (WSW)    
Max Wind Speed 13 mph    
Max Gust Speed 23 mph    
Visibility 10 miles    
Events      
T = Trace of Precipitation, MM = Missing Value Source: NWS Daily Summary

Daily Weather History Graph

Daily Weather History Graph

Search for Another Location

Airport or City:

Trip Planner

Search our weather history database for the weather conditions in past years. The results will help you decide how hot, cold, wet, or windy it might be!

Date:

Astronomy

Dec. 13, 2013 Rise Set
Actual Time 7:53 AM EST 5:04 PM EST
Civil Twilight 7:21 AM EST 5:35 PM EST
Nautical Twilight 6:46 AM EST 6:10 PM EST
Astronomical Twilight 6:13 AM EST 6:44 PM EST
Moon 2:48 PM EST (12/13) 4:12 AM EST (12/13)
Length of Visible Light 10h 14m
Length of Day
9h 10m
Waxing Gibbous, 88% of the Moon is Illuminated
Dec 13
Waxing Gibbous
Dec 17
Full
Dec 25
Last Quarter
Jan 1
New
Jan 7
First Quarter

Hourly Weather History & Observations

Time (EST) Temp. Windchill Dew Point Humidity Pressure Visibility Wind Dir Wind Speed Gust Speed Precip Events Conditions
12:15 AM 19.4 °F 8.6 °F 8.6 °F 63% 30.21 in 10.0 mi SW 9.2 mph - N/A   Overcast
12:35 AM 19.4 °F 10.4 °F 8.6 °F 63% 30.21 in 10.0 mi SW 6.9 mph - N/A   Overcast
12:55 AM 21.2 °F 10.1 °F 8.6 °F 58% 30.20 in 10.0 mi WSW 10.4 mph 18.4 mph N/A   Overcast
1:15 AM 19.4 °F 7.9 °F 8.6 °F 63% 30.19 in 10.0 mi SW 10.4 mph 16.1 mph N/A   Scattered Clouds
1:35 AM 19.4 °F 10.4 °F 8.6 °F 63% 30.19 in 10.0 mi SW 6.9 mph - N/A   Clear
1:55 AM 19.4 °F 8.6 °F 8.6 °F 63% 30.19 in 10.0 mi WSW 9.2 mph 17.3 mph N/A   Mostly Cloudy
2:15 AM 19.4 °F 9.5 °F 8.6 °F 63% 30.19 in 10.0 mi SW 8.1 mph - N/A   Scattered Clouds
2:35 AM 19.4 °F 12.8 °F 8.6 °F 63% 30.20 in 10.0 mi WSW 4.6 mph - N/A   Mostly Cloudy
2:55 AM 19.4 °F 7.9 °F 8.6 °F 63% 30.20 in 10.0 mi SW 10.4 mph - N/A   Overcast
3:15 AM 19.4 °F 7.9 °F 8.6 °F 63% 30.20 in 10.0 mi WSW 10.4 mph - N/A   Overcast
3:35 AM 19.4 °F 8.6 °F 8.6 °F 63% 30.19 in 10.0 mi WSW 9.2 mph - N/A   Overcast
3:55 AM 19.4 °F 8.6 °F 8.6 °F 63% 30.18 in 10.0 mi SW 9.2 mph - N/A   Mostly Cloudy
4:15 AM 21.2 °F 8.9 °F 10.4 °F 63% 30.17 in 10.0 mi WSW 12.7 mph 17.3 mph N/A   Mostly Cloudy
4:35 AM 21.2 °F 10.9 °F 10.4 °F 63% 30.17 in 10.0 mi WSW 9.2 mph - N/A   Overcast
4:55 AM 21.2 °F 11.7 °F 10.4 °F 63% 30.17 in 10.0 mi WSW 8.1 mph - N/A   Overcast
5:15 AM 21.2 °F 11.7 °F 10.4 °F 63% 30.17 in 10.0 mi WSW 8.1 mph - N/A   Overcast
5:35 AM 21.2 °F 10.9 °F 10.4 °F 63% 30.17 in 10.0 mi SW 9.2 mph - N/A   Overcast
5:55 AM 19.4 °F 9.5 °F 10.4 °F 68% 30.18 in 10.0 mi SW 8.1 mph - N/A   Overcast
6:15 AM 19.4 °F 9.5 °F 8.6 °F 63% 30.18 in 10.0 mi SW 8.1 mph - N/A   Overcast
6:35 AM 19.4 °F 8.6 °F 8.6 °F 63% 30.19 in 10.0 mi SW 9.2 mph - N/A   Overcast
6:55 AM 19.4 °F 9.5 °F 8.6 °F 63% 30.19 in 10.0 mi WSW 8.1 mph - N/A   Overcast
7:15 AM 19.4 °F 10.4 °F 8.6 °F 63% 30.20 in 10.0 mi SW 6.9 mph - N/A   Overcast
7:35 AM 19.4 °F 10.4 °F 8.6 °F 63% 30.20 in 10.0 mi West 6.9 mph - N/A   Overcast
7:55 AM 19.4 °F 12.8 °F 8.6 °F 63% 30.21 in 10.0 mi WSW 4.6 mph - N/A   Overcast
8:15 AM 19.4 °F 8.6 °F 8.6 °F 63% 30.21 in 10.0 mi SW 9.2 mph - N/A   Overcast
8:35 AM 19.4 °F 10.4 °F 8.6 °F 63% 30.21 in 10.0 mi SW 6.9 mph - N/A   Overcast
8:55 AM 21.2 °F 12.6 °F 8.6 °F 58% 30.23 in 10.0 mi WSW 6.9 mph - N/A   Overcast
9:15 AM 21.2 °F 14.9 °F 10.4 °F 63% 30.23 in 10.0 mi West 4.6 mph - N/A   Overcast
9:35 AM 21.2 °F 13.6 °F 10.4 °F 63% 30.23 in 10.0 mi West 5.8 mph - N/A   Overcast
9:55 AM 21.2 °F 13.6 °F 10.4 °F 63% 30.24 in 10.0 mi WSW 5.8 mph - N/A   Overcast
10:15 AM 23.0 °F 18.4 °F 10.4 °F 59% 30.22 in 10.0 mi West 3.5 mph - N/A   Overcast
10:35 AM 23.0 °F 17.0 °F 12.2 °F 63% 30.24 in 10.0 mi West 4.6 mph - N/A   Overcast
10:55 AM 23.0 °F 17.0 °F 12.2 °F 63% 30.23 in 10.0 mi SW 4.6 mph - N/A   Overcast
11:15 AM 24.8 °F 16.9 °F 12.2 °F 59% 30.23 in 10.0 mi WSW 6.9 mph - N/A   Overcast
11:35 AM 26.6 °F 21.2 °F 14.0 °F 59% 30.22 in 10.0 mi West 4.6 mph - N/A   Overcast
11:55 AM 26.6 °F - 14.0 °F 59% 30.21 in 10.0 mi Calm Calm - N/A   Overcast
12:15 PM 28.4 °F - 15.8 °F 59% 30.20 in 10.0 mi Calm Calm - N/A   Overcast
12:16 PM 28.4 °F 24.6 °F 15.8 °F 59% 30.20 in 10.0 mi WNW 3.5 mph - N/A   Overcast
12:57 PM 30.2 °F - 17.6 °F 60% 30.19 in 10.0 mi Calm Calm - N/A   Overcast
1:07 PM 30.2 °F - 17.6 °F 60% 30.19 in 10.0 mi Calm Calm - N/A   Overcast
1:15 PM 30.2 °F - 19.4 °F 64% 30.19 in 10.0 mi Calm Calm - N/A   Overcast
1:35 PM 30.2 °F 26.7 °F 19.4 °F 64% 30.19 in 10.0 mi NNW 3.5 mph - N/A   Overcast
1:55 PM 30.2 °F 26.7 °F 19.4 °F 64% 30.18 in 10.0 mi NNW 3.5 mph - N/A   Scattered Clouds
2:15 PM 30.2 °F - 19.4 °F 64% 30.18 in 10.0 mi Calm Calm - N/A   Mostly Cloudy
2:35 PM 30.2 °F - 19.4 °F 64% 30.18 in 10.0 mi Calm Calm - N/A   Scattered Clouds
2:55 PM 32.0 °F - 21.2 °F 64% 30.18 in 10.0 mi Calm Calm - N/A   Clear
3:15 PM 32.0 °F - 21.2 °F 64% 30.18 in 10.0 mi Calm Calm - N/A   Clear
3:35 PM 32.0 °F - 21.2 °F 64% 30.18 in 10.0 mi Calm Calm - N/A   Clear
3:55 PM 30.2 °F - 21.2 °F 69% 30.19 in 10.0 mi Calm Calm - N/A   Clear
4:15 PM 32.0 °F - 21.2 °F 64% 30.20 in 10.0 mi Calm Calm - N/A   Clear
4:35 PM 30.2 °F 26.7 °F 21.2 °F 69% 30.20 in 10.0 mi NNE 3.5 mph - N/A   Clear
4:55 PM 30.2 °F - 21.2 °F 69% 30.19 in 10.0 mi Calm Calm - N/A   Clear
5:15 PM 30.2 °F 25.4 °F 21.2 °F 69% 30.19 in 10.0 mi ENE 4.6 mph - N/A   Clear
5:35 PM 30.2 °F 26.7 °F 21.2 °F 69% 30.19 in 10.0 mi ENE 3.5 mph - N/A   Clear
5:55 PM 30.2 °F 25.4 °F 21.2 °F 69% 30.20 in 10.0 mi East 4.6 mph - N/A   Clear
6:15 PM 28.4 °F 24.6 °F 21.2 °F 74% 30.21 in 10.0 mi East 3.5 mph - N/A   Clear
6:35 PM 28.4 °F - 21.2 °F 74% 30.22 in 10.0 mi Calm Calm - N/A   Clear
6:55 PM 28.4 °F - 21.2 °F 74% 30.23 in 10.0 mi Calm Calm - N/A   Clear
7:15 PM 28.4 °F - 21.2 °F 74% 30.23 in 10.0 mi Calm Calm - N/A   Clear
7:35 PM 28.4 °F 24.6 °F 21.2 °F 74% 30.22 in 10.0 mi ENE 3.5 mph - N/A   Clear
7:55 PM 28.4 °F 24.6 °F 23.0 °F 80% 30.23 in 10.0 mi East 3.5 mph - N/A   Mostly Cloudy
8:15 PM 28.4 °F - 23.0 °F 80% 30.23 in 10.0 mi Calm Calm - N/A   Overcast
8:35 PM 28.4 °F 24.6 °F 23.0 °F 80% 30.24 in 10.0 mi ENE 3.5 mph - N/A   Overcast
8:55 PM 28.4 °F 24.6 °F 23.0 °F 80% 30.24 in 10.0 mi ENE 3.5 mph - N/A   Overcast
9:15 PM 28.4 °F 24.6 °F 23.0 °F 80% 30.24 in 10.0 mi East 3.5 mph - N/A   Overcast
9:35 PM 28.4 °F 24.6 °F 23.0 °F 80% 30.23 in 10.0 mi East 3.5 mph - N/A   Mostly Cloudy
9:55 PM 30.2 °F 25.4 °F 23.0 °F 75% 30.23 in 10.0 mi East 4.6 mph - N/A   Overcast
10:15 PM 30.2 °F 25.4 °F 23.0 °F 75% 30.23 in 10.0 mi ENE 4.6 mph - N/A   Overcast
10:35 PM 30.2 °F 23.4 °F 23.0 °F 75% 30.23 in 10.0 mi East 6.9 mph - N/A   Overcast
10:55 PM 30.2 °F 22.6 °F 23.0 °F 75% 30.23 in 10.0 mi ENE 8.1 mph - N/A   Overcast
11:15 PM 30.2 °F 21.9 °F 23.0 °F 75% 30.22 in 10.0 mi East 9.2 mph - N/A   Overcast
11:35 PM 28.4 °F 18.0 °F 23.0 °F 80% 30.21 in 10.0 mi ENE 12.7 mph - N/A   Overcast
11:55 PM 28.4 °F 20.4 °F 23.0 °F 80% 30.21 in 10.0 mi East 8.1 mph 23.0 mph N/A   Overcast